Miscellaneous Local Product
Issued by NWS North Platte, NE

Home | Current Version | Previous Version | Text Only | Print | Product List | Glossary On
Versions: 1 2 3 4 5 6 7 8 9 10 11 12 13 14 15 16 17 18 19 20 21 22 23 24 25 26 27 28 29 30 31 32 33 34 35 36 37 38 39 40 41 42 43 44 45 46 47 48 49 50
000
AXUS43 KLBF 191610
MISLBF


WESTERN AND NORTH CENTRAL NEBRASKA HOURLY WEATHER ROUNDUP
NATIONAL WEATHER SERVICE NORTH PLATTE NE
1100 AM CDT THU APR 19 2018

NOTE: "FAIR" INDICATES FEW OR NO CLOUDS BELOW 12,000 FEET WITH NO
SIGNIFICANT WEATHER AND/OR OBSTRUCTIONS TO VISIBILITY.

NOTE: STATIONS NOT REPORTING VARIABLES SUCH AS SKY/WEATHER OR
PRESSURE ARE PROVIDED BY RAWS AND APRS NETWORKS AND ARE NOT UNDER
NATIONAL WEATHER SERVICE QUALITY CONTROL.

...OBSERVATIONS IN AND NEAR THE EASTERN PANHANDLE OF NEBRASKA...

CITY           SKY/WX    TMP DP  RH WIND       PRES   REMARKS
PINE RIDGE     SUNNY     51  34  52 S12       30.34F
GORDON         FAIR      49  33  54 S7        30.34F
CHADRON        SUNNY     52  35  52 S17       30.32F
ALLIANCE       SUNNY     48  33  56 S17       30.33F
SIDNEY         MOSUNNY   49  30  48 S21G30    30.33F
CRESCENT LAKE    N/A     47  35  62 S9          N/A
$$

...OBSERVATIONS IN NORTHERN NEBRASKA AND FAR SOUTHERN SOUTH DAKOTA...

CITY           SKY/WX    TMP DP  RH WIND       PRES   REMARKS
WINNER         FAIR      40  29  64 S8        30.45S WCI  34
VALENTINE      SUNNY     46  33  60 CALM      30.42S
AINSWORTH      SUNNY     42  31  67 S7        30.44R
O`NEILL        SUNNY     45  26  46 CALM      30.47S
THEDFORD       SUNNY     46  32  58 SE5       30.42S
BROKEN BOW     SUNNY     44  31  60 E5        30.44S
ORD            SUNNY     44  29  55 VRB3      30.46R
ALBION         SUNNY     45  24  44 E5        30.48R
VALENTINE NWR    N/A     42  31  64 S7          N/A
HALSEY           N/A     45  31  58 E3          N/A
BUTTE            N/A     39  33  78 CALM        N/A
CHAMBERS         N/A     48  29  47 E3          N/A
EWING            N/A     45  29  54 CALM        N/A
$$

...OBSERVATIONS IN SOUTHWEST NEBRASKA AND FAR NORTHEAST COLORADO...

CITY           SKY/WX    TMP DP  RH WIND       PRES   REMARKS
WRAY           FAIR      52  30  43 SE14G22   30.37F
HOLYOKE        FAIR      54  32  43 SE16      30.37F
IMPERIAL       SUNNY     48  33  56 E10G18    30.40S
OGALLALA       SUNNY     49  34  57 SE9       30.39F
NORTH PLATTE   SUNNY     45  31  58 SE6       30.43S
MCCOOK         SUNNY     46  30  53 MISG      30.44S
LEXINGTON      SUNNY     45  31  59 SE6       30.45S
STAPLETON        N/A     45  33  63 CALM        N/A
GOTHENBURG       N/A     42  29  59 CALM        N/A
CALLAWAY         N/A     44  36  74 CALM        N/A
$$

...OBSERVATIONS IN CENTRAL LINCOLN COUNTY AREA...

CITY           SKY/WX    TMP DP  RH WIND       PRES   REMARKS
N.P. AIRPORT   SUNNY     45  31  58 SE6       30.43S
N.P. DOWNTOWN    N/A     45  33  63 CALM        N/A
N.P. HILLCREST   N/A     44  30  59 SE5         N/A
$$

...OBSERVATIONS ACROSS THE ROCKIES AND WESTERN HIGH PLAINS...

CITY           SKY/WX    TMP DP  RH WIND       PRES   REMARKS
RAPID CITY     SUNNY     49  36  61 SE14      30.33F
SCOTTSBLUFF    MOSUNNY   51  32  48 SE17      30.29F
CHEYENNE       CLOUDY    40  18  41 S22G35    30.24F WCI  30
DENVER         PTSUNNY   52  15  23 S20G29    30.23F
BERTHOUD PASS  FAIR      28  18  64 S8        30.30R WCI  20
MONARCH PASS   MOSUNNY   32   1  27 S21       30.41S WCI  20
ASPEN          MOSUNNY   54   4  13 SE14      30.10F
STEAMBOAT      FAIR      43  19  37 CALM      30.07F
LARAMIE        PTSUNNY   38  14  37 SE32G41   30.14F WCI  25
CASPER         CLOUDY    41  26  55 VRB3      30.13F
$$

...OBSERVATIONS ACROSS THE NORTHERN PLAINS...

CITY           SKY/WX    TMP DP  RH WIND       PRES   REMARKS
BISMARCK       SUNNY     40  34  79 VRB3      30.44R
FARGO          FAIR      48  29  47 W3        30.43R
PIERRE         SUNNY     43  33  68 S7        30.43S
SIOUX FALLS    MOSUNNY   40  22  48 CALM      30.48R
$$

...OBSERVATIONS ACROSS THE CENTRAL AND SOUTHERN PLAINS...

CITY           SKY/WX    TMP DP  RH WIND       PRES   REMARKS
OMAHA          SUNNY     47  30  51 N7        30.48R
GRAND ISLAND   SUNNY     43  29  57 NE8       30.48R
KANSAS CITY    MOSUNNY   46  29  51 N9        30.45R
WICHITA        MOSUNNY   49  29  46 N16       30.45S
DODGE CITY     SUNNY     50  30  46 NE12      30.44R
OKLAHOMA CITY  CLOUDY    52  28  39 NE14      30.43R
DALLAS         PTSUNNY   62  32  32 N15       30.37R
AMARILLO       CLOUDY    54  25  32 SE18      30.40S
$$




USA.gov is the U.S. government's official web portal to all federal, state and local government web resources and services.